#timestamp,LO_Frequency,Hit,StdDev 
1538503215.5,286047004.8,N
1538503235.3,286047004.9,Y
1538503255.2,286047002.3,P
1538503275.9,286047004.4,P
1538503295.7,286047001.8,N
1538503315.6,286047004.3,Y
1538503335.4,286046998.5,P
1538503355.2,286046999.0,N
1538503375.1,286046998.8,N
1538503376.0,286046998.8,N
1538503395.8,286046998.8,N
1538503415.7,286047000.6,N
1538503435.5,286047000.4,N
1538503455.3,286046999.9,N
1538503475.2,286046999.9,N
1538503495.0,286047002.2,N
1538503495.9,286047002.2,N
1538503515.7,286047000.1,N
1538503535.6,286047000.3,N
1538503555.4,286047000.2,N
1538503575.3,286047000.3,N
1538503595.1,286047000.5,N
1538503596.0,286047000.5,N
1538503615.8,286047002.7,N
1538503635.7,286047000.2,N
1538503655.5,286047001.5,N
1538503675.3,286047002.8,N
1538503695.2,286047002.2,N
1538503715.0,286046999.7,N
1538503715.9,286046999.7,N
1538503735.8,286046999.9,N
1538503755.6,286046999.9,N
1538503775.4,286047000.3,N
1538503795.3,286047000.9,N
1538503815.1,286047000.9,N
1538503835.8,286047000.0,N
1538503855.7,286046999.8,N
1538503875.5,286047000.0,N
1538503895.3,286047000.0,N
1538503915.2,286047001.9,N
1538503935.0,286047001.5,N
1538503935.9,286047001.5,N
1538503955.8,286047003.7,Y
1538503975.6,286047001.4,P
1538503995.4,286047001.9,P
1538504015.3,286047003.6,P
1538504035.1,286047003.2,N
1538504055.9,286047003.2,N
1538504075.7,286047001.4,N
1538504095.5,286047005.8,Y
1538504115.4,286047001.9,P
1538504135.2,286047001.9,P
1538504155.0,286047002.0,P
1538504155.9,286047002.0,Y
1538504175.8,286047000.2,P
1538504195.6,286047000.3,N
1538504215.4,286047000.6,N
1538504235.3,286047000.2,N
1538504255.1,286047002.3,Y
1538504275.9,286047000.1,P
1538504295.7,286047002.4,P
1538504315.5,286047000.1,N
1538504335.4,286047000.7,N
1538504355.2,286047001.0,N
1538504375.0,286047000.8,N
1538504375.9,286047000.8,N
1538504395.8,286047001.1,N
1538504415.6,286046998.1,Y
1538504435.5,286046998.1,P
1538504455.3,286047001.0,N
1538504475.1,286046998.7,N
1538504495.9,286046999.9,N
1538504515.7,286046999.9,N
1538504535.5,286047002.2,N
1538504555.4,286047000.2,N
1538504575.2,286047002.2,N
1538504595.1,286047002.4,N
1538504596.0,286047002.4,N
1538504615.8,286047001.4,N
1538504635.6,286047001.9,N
1538504655.5,286047002.7,N
1538504675.3,286047002.3,N
1538504695.1,286047001.5,N
1538504715.9,286047003.9,N
1538504735.7,286047003.9,N
1538504755.6,286047001.7,N
1538504775.4,286047001.8,N
1538504795.2,286047004.4,N
1538504815.1,286047003.3,N
1538504816.0,286047003.3,N
1538504835.8,286047003.4,N
1538504855.7,286047005.5,Y
1538504875.5,286047004.3,P
1538504895.3,286047003.8,P
1538504915.2,286047001.5,N
1538504935.9,286047003.5,N
1538504955.7,286047004.3,Y
1538504975.6,286047000.5,P
1538504995.4,286047000.8,N
1538505015.3,286047000.3,N
1538505035.1,286046999.7,N
1538505036.0,286046999.7,N
1538505055.8,286047000.1,N
1538505075.7,286047001.9,N
1538505095.5,286047002.3,N
1538505115.3,286047001.0,N
1538505135.2,286047000.5,N
1538505155.0,286047002.7,N
1538505155.9,286047002.7,N
1538505175.8,286047000.2,N
1538505195.6,286047002.6,N
1538505215.4,286047002.6,N
1538505235.3,286047001.8,N
1538505255.1,286047002.4,N
1538505275.8,286046999.7,N
1538505295.7,286047001.6,N
1538505315.5,286047002.2,N
1538505335.3,286047002.5,N
1538505355.2,286047004.0,Y
1538505375.0,286047002.2,P
1538505375.9,286047002.2,P
1538505395.8,286047004.2,P
1538505415.6,286047001.4,N
1538505435.4,286047004.1,Y
1538505455.3,286046998.5,P
1538505475.1,286046998.7,N
1538505495.9,286046998.8,N
1538505515.7,286046997.1,N
1538505535.5,286046996.5,N
1538505555.4,286046999.3,N
1538505575.2,286046999.0,N
1538505595.0,286046998.3,N
1538505595.9,286046998.3,N
1538505615.8,286046998.8,N
1538505635.6,286047000.7,N
1538505655.5,286046998.8,N
1538505675.3,286047000.8,N
1538505695.1,286046998.9,N
1538505715.9,286046999.5,N
1538505735.7,286046998.7,N
1538505755.5,286046999.0,N
1538505775.4,286046999.6,N
1538505795.2,286046998.6,N
1538505815.1,286046998.4,N
1538505816.0,286046998.4,N
1538505835.8,286047000.1,N
1538505855.6,286047001.9,N
1538505875.5,286047001.5,N
1538505895.3,286046999.7,N
1538505915.1,286047002.4,N
1538505935.9,286047001.6,N
1538505955.7,286047004.1,N
1538505975.6,286047004.3,N
1538505995.4,286047004.4,N
1538506015.2,286047004.0,N
1538506035.1,286047001.5,N
1538506036.0,286047001.5,N
1538506055.8,286047003.3,N
1538506075.6,286047003.4,N
1538506095.5,286047005.6,N
1538506115.3,286047003.1,N
1538506135.2,286047003.2,N
1538506155.9,286047005.9,N
1538506175.7,286047005.9,N
1538506195.6,286047005.9,N
1538506215.4,286047003.2,N
1538506235.2,286047003.3,N
1538506255.1,286047005.4,N
1538506256.0,286047005.4,N
1538506275.8,286047003.4,N
1538506295.7,286047006.0,N
1538506315.5,286047003.2,N
1538506335.3,286047005.7,N
1538506355.2,286047006.9,Y
1538506375.0,286047003.1,P
1538506375.9,286047003.1,P
1538506395.8,286047003.0,P
1538506415.6,286047006.0,Y
1538506435.4,286047002.0,P
1538506455.3,286047004.4,P
1538506475.1,286047003.9,P
1538506495.8,286047003.8,Y
1538506515.7,286047000.4,P
1538506535.5,286047002.1,N
1538506555.4,286047002.4,N
1538506575.2,286047004.4,Y
1538506595.0,286047002.6,P
1538506595.9,286047002.6,P
1538506615.8,286047004.3,P
1538506635.6,286047001.6,N
1538506655.4,286047001.6,N
1538506675.3,286047003.9,Y
1538506695.1,286047002.3,P
1538506715.9,286047001.9,P
1538506735.7,286047001.3,P
1538506755.5,286047004.2,Y
1538506775.4,286047000.5,P
1538506795.2,286047001.5,N
